Flag for Switzerland Weather past 2 weeks in Altstätten, St. Gallen, Switzerland

Now
52 °F

Clear.


Feels Like: 49 °F
Forecast: 41 / 67 °F
Wind: 8 mph from South

Location: Saint Gallen-Altenrhein

Current Time: May 28, 2015 at 1:09:31 AM

Latest Report: May 28, 2015 at 12:50 AM


Visibility: 10 mi

Pressure: 30.15 "Hg

Humidity: 62%

Dew point: 39 °F

Location of AltstättenLocation

Historic Weather in Altstätten — Graph

°F

Altstätten temperature yesterday

Maximum temperature yesterday: 59 °F (at 6:20 PM)
Minimum temperature yesterday: 46 °F (at 5:50 AM)
Average temperature yesterday: 52 °F

Past Weeks' High & Low Weather Summary

 TemperatureHumidityPressure
High77 °F (May 13, 6:20 PM)100% (May 15, 5:20 PM)30.30 "Hg (May 15, 5:20 PM)
Low43 °F (May 21, 1:50 AM)31% (May 13, 12:20 AM)29.77 "Hg (May 18, 6:20 PM)
Average56 °F77%30.06 "Hg
* Reported May 13 12:20 AM — May 28 12:20 AM, Altstätten, Weather by CustomWeather, © 2015

Note: Actual official high and low records may vary slightly from our data, if they occured in-between our weather recording intervals... More about our weather records

Advertising

Altstätten weather history for previous 24 hours

 ConditionsComfort  
Time TempWeatherWind HumidityBarometerVisibility
12:20 AM
Thu, May 28
48 °FPassing clouds.6 mph71%30.15 "HgN/A
11:50 PM
Wed, May 27
46 °FClear.5 mph76%30.15 "Hg10 mi
11:20 PM52 °FPassing clouds.3 mph54%30.18 "HgN/A
10:50 PM52 °FPassing clouds.5 mph54%30.18 "HgN/A
10:20 PM52 °FClear.5 mph58%30.18 "Hg10 mi
9:50 PM52 °FSunny.3 mph62%30.18 "Hg10 mi
9:20 PM54 °FSunny.2 mph58%30.18 "Hg10 mi
8:50 PM54 °FCool.1 mph67%30.18 "HgN/A
8:20 PM57 °FSunny.2 mph44%30.18 "Hg10 mi
7:50 PM59 °FSunny.2 mph34%30.18 "Hg10 mi
7:20 PM59 °FSunny.2 mph34%30.18 "Hg10 mi
6:50 PM59 °FPassing clouds.3 mph42%30.18 "HgN/A
6:20 PM59 °FPassing clouds.3 mph45%30.18 "HgN/A
5:50 PM57 °FPassing clouds.2 mph39%30.18 "HgN/A
5:20 PM57 °FPassing clouds.5 mph48%30.21 "HgN/A
4:50 PM57 °FPassing clouds.6 mph48%30.21 "HgN/A
4:20 PM57 °FPassing clouds.6 mph48%30.21 "HgN/A
3:50 PM57 °FScattered clouds.6 mph48%30.21 "HgN/A
3:20 PM57 °FScattered clouds.6 mph48%30.21 "HgN/A
2:50 PM57 °FScattered clouds.5 mph41%30.21 "HgN/A
2:20 PM55 °FScattered clouds.6 mph55%30.24 "HgN/A
1:50 PM55 °FPartly sunny.8 mph55%30.24 "HgN/A
1:20 PM54 °FPartly sunny.8 mph58%30.24 "HgN/A
12:50 PM54 °FPartly sunny.7 mph63%30.24 "HgN/A
12:20 PM54 °FPartly sunny.7 mph63%30.24 "HgN/A
11:50 AM54 °FPartly sunny.5 mph63%30.24 "HgN/A
11:20 AM54 °FPartly sunny.3 mph72%30.24 "HgN/A
10:50 AM52 °FPartly sunny.6 mph67%30.24 "HgN/A
10:20 AM52 °FPartly sunny.5 mph72%30.24 "HgN/A
9:50 AM50 °FPartly sunny.5 mph71%30.24 "HgN/A
9:20 AM50 °FPartly sunny.3 mph71%30.24 "HgN/A
8:50 AM50 °FPartly sunny.5 mph76%30.24 "HgN/A
8:20 AM50 °FPartly sunny.3 mph76%30.24 "HgN/A
7:50 AM50 °FPartly sunny.2 mph76%30.24 "HgN/A
7:20 AM48 °FScattered clouds.2 mph82%30.24 "HgN/A
6:50 AM48 °FScattered clouds.3 mph82%30.21 "HgN/A
6:20 AM48 °FPassing clouds.6 mph71%30.21 "HgN/A
5:50 AM46 °FPassing clouds.6 mph76%30.21 "HgN/A
5:20 AM48 °FPassing clouds.6 mph76%30.21 "HgN/A
4:50 AM50 °FPartly cloudy.6 mph76%30.21 "HgN/A
4:20 AM50 °FPassing clouds.5 mph82%30.21 "HgN/A
3:50 AM48 °FPartly cloudy.6 mph87%30.18 "HgN/A
3:20 AM48 °FPartly cloudy.2 mph94%30.21 "HgN/A
2:50 AM48 °FMostly cloudy.1 mph94%30.18 "HgN/A
2:20 AM48 °FMostly cloudy.2 mph94%30.18 "Hg6 mi
1:50 AM48 °FPartly cloudy.3 mph94%30.18 "Hg4 mi
1:20 AM48 °FRain showers. Fog.6 mph94%30.18 "Hg2 mi
Weather by CustomWeather, © 2015

See weather overviewHow to use our weather pages